TimeMST,TemperatureF,Dew PointF,Humidity,Sea Level PressureIn,VisibilityMPH,Wind Direction,Wind SpeedMPH,Gust SpeedMPH,PrecipitationIn,Events,Conditions,WindDirDegrees,DateUTC
12:56 AM,50.0,27.0,41,29.84,10.0,Calm,Calm,-,N/A,,Mostly Cloudy,0,2011-11-13 07:56:00
1:56 AM,48.9,26.1,41,29.86,10.0,SSW,4.6,-,N/A,,Mostly Cloudy,200,2011-11-13 08:56:00
2:56 AM,45.0,26.1,48,29.86,10.0,Calm,Calm,-,N/A,,Mostly Cloudy,0,2011-11-13 09:56:00
3:56 AM,48.0,27.0,44,29.83,10.0,SW,12.7,-,N/A,,Overcast,220,2011-11-13 10:56:00
4:56 AM,46.9,28.0,48,29.85,10.0,WSW,8.1,-,N/A,,Overcast,240,2011-11-13 11:56:00
5:56 AM,46.9,28.0,48,29.85,10.0,SW,6.9,-,N/A,,Mostly Cloudy,230,2011-11-13 12:56:00
6:56 AM,46.9,28.0,48,29.86,10.0,SW,4.6,-,N/A,,Mostly Cloudy,230,2011-11-13 13:56:00
7:56 AM,48.0,28.0,46,29.86,10.0,Variable,3.5,-,N/A,,Mostly Cloudy,0,2011-11-13 14:56:00
8:56 AM,50.0,30.0,46,29.85,10.0,SSW,6.9,-,N/A,,Mostly Cloudy,210,2011-11-13 15:56:00
9:56 AM,52.0,30.0,43,29.85,10.0,SSW,11.5,-,N/A,,Mostly Cloudy,210,2011-11-13 16:56:00
10:56 AM,53.1,30.0,41,29.85,10.0,South,13.8,-,N/A,,Mostly Cloudy,190,2011-11-13 17:56:00
11:56 AM,54.0,30.0,40,29.83,10.0,South,10.4,-,N/A,,Overcast,190,2011-11-13 18:56:00
12:56 PM,54.0,32.0,43,29.81,10.0,South,9.2,-,N/A,,Overcast,180,2011-11-13 19:56:00
1:56 PM,53.1,34.0,48,29.78,10.0,South,5.8,-,0.00,Rain,Light Rain,190,2011-11-13 20:56:00
2:56 PM,54.0,33.1,45,29.79,10.0,South,9.2,-,N/A,,Overcast,180,2011-11-13 21:56:00
3:56 PM,54.0,37.0,53,29.78,10.0,South,11.5,-,0.00,Rain,Light Rain,190,2011-11-13 22:56:00
4:56 PM,54.0,37.0,53,29.79,10.0,SW,19.6,26.5,0.00,,Mostly Cloudy,220,2011-11-13 23:56:00
5:56 PM,54.0,37.9,55,29.79,10.0,SW,15.0,-,N/A,,Mostly Cloudy,230,2011-11-14 00:56:00
6:56 PM,54.0,37.0,53,29.81,10.0,WSW,17.3,26.5,N/A,,Mostly Cloudy,250,2011-11-14 01:56:00
7:56 PM,53.1,36.0,52,29.81,10.0,WSW,18.4,25.3,N/A,,Mostly Cloudy,250,2011-11-14 02:56:00
8:56 PM,50.0,36.0,59,29.84,10.0,SSE,4.6,-,N/A,,Mostly Cloudy,150,2011-11-14 03:56:00
9:56 PM,51.1,36.0,56,29.84,10.0,SW,4.6,-,N/A,,Mostly Cloudy,220,2011-11-14 04:56:00
10:56 PM,50.0,36.0,59,29.84,10.0,SSW,9.2,-,N/A,,Mostly Cloudy,210,2011-11-14 05:56:00
11:56 PM,48.9,36.0,61,29.84,10.0,SW,15.0,-,N/A,,Mostly Cloudy,220,2011-11-14 06:56:00